Change the Weather History Date:

Wednesday, July 31, 2013

  Actual Average Record
Temperature  
Mean Temperature 54 °F -  
Max Temperature 59 °F - - ()
Min Temperature 49 °F - - ()
Degree Days  
Heating Degree Days 11    
Growing Degree Days 4 (Base 50)    
Moisture  
Dew Point 55 °F    
Average Humidity 97    
Maximum Humidity 100    
Minimum Humidity 91    
Precipitation  
Precipitation 0.55 in - - ()
Sea Level Pressure  
Sea Level Pressure 29.76 in    
Wind  
Wind Speed 7 mph ()    
Max Wind Speed 17 mph    
Max Gust Speed -    
Visibility 4.4 miles    
Events Fog , Rain    
T = Trace of Precipitation, MM = Missing Value Source: Averaged Metar Reports

Daily Weather History Graph

Daily Weather History Graph

Search for Another Location

Airport or City:

Trip Planner

Search our weather history database for the weather conditions in past years. The results will help you decide how hot, cold, wet, or windy it might be!

Date:

Astronomy

Jul. 31, 2013 Rise Set
Actual Time 5:47 AM IST 9:34 PM IST
Civil Twilight 5:02 AM IST 10:18 PM IST
Nautical Twilight 3:59 AM IST 11:21 PM IST
Astronomical Twilight 2:14 AM IST 1:26 AM IST
Moon 12:37 AM IST (7/31) 4:40 PM IST (7/31)
Length of Visible Light 17h 16m
Length of Day
15h 47m
Waning Crescent, 34% of the Moon is Illuminated
Jul 31
Waning Crescent
Aug 6
New
Aug 14
First Quarter
Aug 21
Full
Aug 28
Last Quarter

Hourly Weather History & Observations

Time (IST) Temp. Dew Point Humidity Pressure Visibility Wind Dir Wind Speed Gust Speed Precip Events Conditions
1:00 AM 53 °F 51 °F 91% 29.90 in - WSW 4.5 mph - -  
7:00 AM 51 °F 50 °F 96% 29.87 in 31 mi SE 4.5 mph - -   Scattered Clouds
7:00 AM 51.8 °F 50.0 °F 94% 29.86 in 6.2 mi SE 3.5 mph - N/A   Mostly Cloudy
7:30 AM 51.8 °F 51.8 °F 100% 29.86 in 6.2 mi SE 4.6 mph - N/A   Mostly Cloudy
8:00 AM 53.6 °F 51.8 °F 94% 29.86 in 6.2 mi ESE 4.6 mph - N/A   Mostly Cloudy
8:30 AM 53.6 °F 51.8 °F 94% 29.83 in 6.2 mi ESE 5.8 mph - N/A   Mostly Cloudy
9:00 AM 55.4 °F 53.6 °F 94% 29.83 in 6.2 mi ESE 6.9 mph - N/A   Overcast
9:30 AM 55.4 °F 53.6 °F 94% 29.83 in 6.2 mi ESE 6.9 mph - N/A   Overcast
10:00 AM 55.4 °F 53.6 °F 94% 29.83 in 6.2 mi SE 6.9 mph - N/A   Mostly Cloudy
10:30 AM 55.4 °F 53.6 °F 94% 29.80 in 6.2 mi ESE 9.2 mph - N/A   Mostly Cloudy
11:00 AM 57.2 °F 55.4 °F 94% 29.80 in 6.2 mi East 9.2 mph - N/A Rain Light Rain
11:30 AM 55.4 °F 55.4 °F 100% 29.80 in 6.2 mi ESE 8.1 mph - N/A Rain Light Rain
12:00 PM 55.4 °F 55.4 °F 100% 29.80 in 6.2 mi East 6.9 mph - N/A Rain Light Rain
12:30 PM 55.4 °F 55.4 °F 100% 29.77 in 6.2 mi East 9.2 mph - N/A Rain Light Rain
1:00 PM 56 °F 55 °F 97% 29.78 in 9 mi East 13.4 mph - - Rain Light Rain
1:00 PM 57.2 °F 55.4 °F 94% 29.77 in 6.2 mi East 13.8 mph - N/A Rain Light Rain
1:30 PM 55.4 °F 55.4 °F 100% 29.77 in 5.0 mi East 11.5 mph - N/A Rain Light Rain
2:00 PM 55.4 °F 55.4 °F 100% 29.74 in 3.7 mi East 13.8 mph - N/A Rain Light Rain
2:30 PM 55.4 °F 55.4 °F 100% 29.71 in 3.7 mi East 17.3 mph - N/A Rain Light Rain
3:00 PM 57.2 °F 55.4 °F 94% 29.71 in 2.5 mi East 13.8 mph - N/A Rain Light Rain
3:30 PM 55.4 °F 55.4 °F 100% 29.71 in 1.9 mi East 13.8 mph - N/A Rain Light Rain
4:00 PM 55.4 °F 55.4 °F 100% 29.68 in 1.2 mi East 13.8 mph - N/A Rain Rain
4:30 PM 55.4 °F 55.4 °F 100% 29.68 in 1.9 mi East 11.5 mph - N/A Rain Light Rain
5:00 PM 55.4 °F 55.4 °F 100% 29.65 in 1.9 mi East 11.5 mph - N/A Rain Light Rain
5:30 PM 57.2 °F 55.4 °F 94% 29.65 in 1.2 mi East 11.5 mph - N/A Rain Rain
6:00 PM 57.2 °F 57.2 °F 100% 29.65 in 1.2 mi East 8.1 mph - N/A Rain Light Rain
7:00 PM 59 °F 59 °F 100% 29.64 in 0 mi SE 6.7 mph - - Fog Partial Fog
7:00 PM 59.0 °F 59.0 °F 100% 29.62 in 0.1 mi SE 5.8 mph - N/A Fog Fog